Cumberland, WV

1:08 PM EDT on April 25, 2017 (GMT -0400)
Greater Cumberland Regional

Weather History for KCBE - October, 2012

Change the Weather History Date:

Thursday, October 25, 2012

  Actual Average (KMRB) Record (KMRB)
Temperature  
Mean Temperature 63 °F -  
Max Temperature 78 °F 61 °F 80 °F (1940)
Min Temperature 48 °F 41 °F 25 °F (1962)
Degree Days  
Heating Degree Days 2    
Growing Degree Days 13 (Base 50)    
Moisture  
Dew Point 55 °F    
Average Humidity 82    
Maximum Humidity 100    
Minimum Humidity 44    
Precipitation  
Precipitation 0.00 in - - ()
Sea Level Pressure  
Sea Level Pressure 30.18 in    
Wind  
Wind Speed 2 mph (ENE)    
Max Wind Speed 9 mph    
Max Gust Speed -    
Visibility 9 miles    
Events      
Averages and records for this station are not official NWS values.
T = Trace of Precipitation, MM = Missing Value Source: NWS Daily Summary

Daily Weather History Graph

Daily Weather History Graph

Search for Another Location

Airport or City:

Trip Planner

Search our weather history database for the weather conditions in past years. The results will help you decide how hot, cold, wet, or windy it might be!

Date:

Astronomy

Oct. 25, 2012 Rise Set
Actual Time 7:36 AM EDT 6:21 PM EDT
Civil Twilight 7:08 AM EDT 6:48 PM EDT
Nautical Twilight 6:37 AM EDT 7:20 PM EDT
Astronomical Twilight 6:05 AM EDT 7:51 PM EDT
Moon 4:05 PM EDT 3:31 AM EDT
Length of Visible Light 11h 40m
Length of Day
10h 45m
Waxing Gibbous, 84% of the Moon is Illuminated
Oct 25
Waxing Gibbous
Oct 29
Full
Nov 6
Last Quarter
Nov 13
New
Nov 20
First Quarter

Hourly Weather History & Observations

Time (EDT) Temp. Dew Point Humidity Pressure Visibility Wind Dir Wind Speed Gust Speed Precip Events Conditions
12:06 AM 57.2 °F 53.6 °F 88% 30.17 in 10.0 mi Calm Calm - N/A   Clear
12:28 AM 57.2 °F 53.6 °F 88% 30.17 in 10.0 mi Calm Calm - N/A   Clear
12:49 AM 55.4 °F 53.6 °F 94% 30.17 in 10.0 mi Calm Calm - N/A   Clear
1:10 AM 55.4 °F 53.6 °F 94% 30.17 in 10.0 mi North 6.9 mph - N/A   Clear
1:32 AM 57.2 °F 53.6 °F 88% 30.18 in 10.0 mi North 4.6 mph - N/A   Clear
1:53 AM 57.2 °F 51.8 °F 82% 30.18 in 10.0 mi Calm Calm - N/A   Clear
2:14 AM 51.8 °F 51.8 °F 100% 30.18 in 10.0 mi Calm Calm - N/A   Clear
2:36 AM 51.8 °F 51.8 °F 100% 30.18 in 10.0 mi Calm Calm - N/A   Clear
2:57 AM 53.6 °F 53.6 °F 100% 30.18 in 10.0 mi North 3.5 mph - N/A   Clear
3:18 AM 51.8 °F 51.8 °F 100% 30.18 in 10.0 mi Calm Calm - N/A   Clear
3:40 AM 51.8 °F 50.0 °F 94% 30.17 in 10.0 mi Calm Calm - N/A   Clear
4:01 AM 51.8 °F 51.8 °F 100% 30.17 in 10.0 mi Calm Calm - N/A   Clear
4:22 AM 50.0 °F 50.0 °F 100% 30.17 in 10.0 mi Calm Calm - N/A   Clear
4:43 AM 51.8 °F 51.8 °F 100% 30.17 in 10.0 mi Calm Calm - N/A   Clear
5:05 AM 51.8 °F 51.8 °F 100% 30.18 in 10.0 mi Calm Calm - N/A   Clear
5:26 AM 50.0 °F 50.0 °F 100% 30.18 in 7.0 mi Calm Calm - N/A   Clear
5:47 AM 50.0 °F 50.0 °F 100% 30.18 in 10.0 mi Calm Calm - N/A   Clear
6:09 AM 48.2 °F 48.2 °F 100% 30.18 in 7.0 mi Calm Calm - N/A   Clear
6:30 AM 48.2 °F 48.2 °F 100% 30.19 in 4.0 mi Calm Calm - N/A   Clear
6:51 AM 48.2 °F 48.2 °F 100% 30.20 in 4.0 mi Calm Calm - N/A   Clear
7:13 AM 50.0 °F 50.0 °F 100% 30.20 in 7.0 mi Calm Calm - N/A   Clear
7:34 AM 48.2 °F 48.2 °F 100% 30.20 in 5.0 mi Calm Calm - N/A   Clear
7:55 AM 48.2 °F 48.2 °F 100% 30.21 in 7.0 mi Calm Calm - N/A   Clear
8:16 AM 48.2 °F 48.2 °F 100% 30.22 in 5.0 mi Calm Calm - N/A   Clear
8:38 AM 50.0 °F 50.0 °F 100% 30.23 in 5.0 mi Calm Calm - N/A   Clear
8:59 AM 51.8 °F 51.8 °F 100% 30.23 in 10.0 mi Calm Calm - N/A   Clear
9:20 AM 53.6 °F 53.6 °F 100% 30.23 in 10.0 mi Calm Calm - N/A   Clear
9:41 AM 55.4 °F 53.6 °F 94% 30.23 in 10.0 mi Calm Calm - N/A   Clear
10:03 AM 57.2 °F 53.6 °F 88% 30.23 in 10.0 mi Calm Calm - N/A   Clear
10:24 AM 59.0 °F 53.6 °F 82% 30.23 in 10.0 mi Calm Calm - N/A   Clear
10:45 AM 60.8 °F 53.6 °F 77% 30.23 in 10.0 mi Calm Calm - N/A   Clear
11:06 AM 62.6 °F 55.4 °F 77% 30.22 in 10.0 mi Calm Calm - N/A   Clear
11:28 AM 66.2 °F 53.6 °F 64% 30.22 in 10.0 mi Calm Calm - N/A   Clear
11:49 AM 68.0 °F 53.6 °F 60% 30.21 in 10.0 mi Calm Calm - N/A   Clear
12:10 PM 69.8 °F 53.6 °F 56% 30.20 in 10.0 mi Calm Calm - N/A   Clear
12:31 PM 71.6 °F 55.4 °F 57% 30.20 in 10.0 mi South 4.6 mph - N/A   Clear
12:53 PM 71.6 °F 55.4 °F 57% 30.19 in 10.0 mi SSW 4.6 mph - N/A   Clear
1:14 PM 73.4 °F 55.4 °F 53% 30.18 in 10.0 mi SSW 4.6 mph - N/A   Clear
1:35 PM 73.4 °F 55.4 °F 53% 30.17 in 10.0 mi SW 5.8 mph - N/A   Clear
1:56 PM 75.2 °F 55.4 °F 50% 30.16 in 10.0 mi South 5.8 mph - N/A   Clear
2:18 PM 77.0 °F 55.4 °F 47% 30.15 in 10.0 mi SSW 4.6 mph - N/A   Clear
2:39 PM 78.8 °F 55.4 °F 44% 30.14 in 10.0 mi East 3.5 mph - N/A   Clear
3:00 PM 78.8 °F 55.4 °F 44% 30.13 in 10.0 mi SE 9.2 mph - N/A   Clear
3:22 PM 78.8 °F 57.2 °F 47% 30.14 in 10.0 mi East 8.1 mph - N/A   Clear
3:43 PM 77.0 °F 59.0 °F 54% 30.14 in 10.0 mi ESE 8.1 mph - N/A   Clear
4:04 PM 77.0 °F 59.0 °F 54% 30.14 in 10.0 mi ESE 6.9 mph - N/A   Clear
4:25 PM 75.2 °F 59.0 °F 57% 30.14 in 10.0 mi ESE 8.1 mph - N/A   Clear
4:46 PM 73.4 °F 59.0 °F 61% 30.13 in 10.0 mi NE 5.8 mph - N/A   Clear
5:08 PM 73.4 °F 59.0 °F 61% 30.14 in 7.0 mi NE 3.5 mph - N/A   Clear
5:29 PM 71.6 °F 59.0 °F 64% 30.14 in 10.0 mi NE 3.5 mph - N/A   Clear
5:50 PM 69.8 °F 59.0 °F 68% 30.14 in 7.0 mi NNE 4.6 mph - N/A   Clear
6:11 PM 68.0 °F 59.0 °F 73% 30.15 in 7.0 mi NE 5.8 mph - N/A   Clear
6:33 PM 66.2 °F 59.0 °F 78% 30.16 in 10.0 mi NE 4.6 mph - N/A   Clear
6:54 PM 64.4 °F 59.0 °F 83% 30.16 in 10.0 mi NE 5.8 mph - N/A   Clear
7:15 PM 64.4 °F 59.0 °F 83% 30.17 in 10.0 mi NE 3.5 mph - N/A   Clear
7:36 PM 62.6 °F 59.0 °F 88% 30.18 in 10.0 mi NNE 5.8 mph - N/A   Clear
7:58 PM 62.6 °F 59.0 °F 88% 30.18 in 7.0 mi NE 5.8 mph - N/A   Clear
8:19 PM 62.6 °F 59.0 °F 88% 30.18 in 7.0 mi NE 5.8 mph - N/A   Clear
8:40 PM 60.8 °F 59.0 °F 94% 30.19 in 7.0 mi NE 4.6 mph - N/A   Clear
9:01 PM 60.8 °F 59.0 °F 94% 30.18 in 7.0 mi NNE 3.5 mph - N/A   Scattered Clouds
9:23 PM 60.8 °F 59.0 °F 94% 30.19 in 7.0 mi Calm Calm - N/A   Mostly Cloudy
9:44 PM 62.6 °F 59.0 °F 88% 30.19 in 7.0 mi Calm Calm - N/A   Scattered Clouds
10:05 PM 62.6 °F 59.0 °F 88% 30.18 in 7.0 mi Calm Calm - N/A   Scattered Clouds
10:27 PM 60.8 °F 59.0 °F 94% 30.18 in 7.0 mi Calm Calm - N/A   Scattered Clouds
11:09 PM 60.8 °F 59.0 °F 94% 30.18 in 5.0 mi Calm Calm - N/A   Scattered Clouds
11:31 PM 60.8 °F 59.0 °F 94% 30.17 in 5.0 mi Calm Calm - N/A   Scattered Clouds
11:52 PM 59.0 °F 59.0 °F 100% 30.17 in 5.0 mi Calm Calm - N/A   Scattered Clouds